トルヒーヨ-シェパード彗星

P/2018 V5 ( Trujillo-Sheppard )

English version
Home page
Updated on February 8, 2019

---------------------------------------------------------------------

・ プロフィール

発見日 2018年11月6日
発見光度 22.2等
発見者 C. A. Trujillo and S. S. Sheppard (Mauna Kea)

・ 軌道要素

Epoch 2018 Mar. 23.0 TT = JDT 2458200.5                 MPC
M 169.93401              (2000.0)            P               Q
n   1.33368193     Peri.  241.17313     +0.98857005     +0.14862419
a   0.8173998      Node   110.27013     -0.12721345     +0.91238662
e   0.4004756      Incl.    1.54549     -0.08090731     +0.38139416
P   0.74           H   26.3           G   0.15           U   8

・ 光度変化

        m1 = 12.5 + 5 logΔ + 10.0 log r

---------------------------------------------------------------------

軌道要素はM.P.E.C. 2018-C18に掲載されたものです。
光度グラフはComet for Windowsで作成したものです。

---------------------------------------------------------------------

Copyright(C) Seiichi Yoshida (comet@aerith.net). All rights reserved.